Location: Newark
(44.6028°N, 124.0883°W)
Time: 02:58:05
(UTC+00:00)

Vanguard 1 - Pass Details

Date: 31 October 2019
Orbit: 652 x 3831 km, 34.2° (Epoch: 11 November)

Event Time Altitude Azimuth Distance (km) Brightness Sun altitude
Rises 04:18:32 0° 264° (W) 3,809 14.0 -34.2°
Reaches altitude 10° 04:20:58 10° 254° (WSW) 3,127 13.2 -34.6°
Maximum altitude 04:28:02 36° 191° (S) 2,484 11.9 -35.9°
Enters shadow 04:28:50 35° 183° (S) 2,577 11.9 -36.0°
Drops below altitude 10° 04:39:59 10° 133° (SE) 5,293 - -37.9°
Sets 04:45:38 0° 126° (SE) 6,830 - -38.8°
